Regional Weather Roundup
Issued by NWS Portland, ME

Home | Current Version | Previous Version | Text Only | Print | Product List | Glossary On
Versions: 1 2 3 4 5 6 7 8 9 10 11 12 13 14 15 16 17 18 19 20 21 22 23 24 25 26 27 28 29 30 31 32 33 34 35 36 37 38 39 40 41 42 43 44 45 46 47 48 49 50
000
ASUS41 KGYX 010610
RWRGYX
WEATHER ROUNDUP FOR MAINE AND NEW HAMPSHIRE
NATIONAL WEATHER SERVICE GRAY ME
200 AM EDT WED JUN 01 2016

MEZ002-005-006-010-012-015-018-020-021-024-026-027-029-010700-
MAINE

CITY           SKY/WX    TMP DP  RH WIND       PRES   REMARKS
PORTLAND       PTCLDY    62  51  67 SW5       30.00R
6HR MIN TEMP:  60; 6HR MAX TEMP:  76;

SANFORD        CLEAR     52  46  82 CALM      30.01R
BAR HARBOR     CLEAR     58  52  80 CALM      29.97R
WISCASSET      MOCLDY    56  52  86 CALM      30.00R
6HR MIN TEMP:  56; 6HR MAX TEMP:  78;

ROCKLAND       CLEAR     57  51  80 W5        29.97R
FRYEBURG       CLEAR     55  52  89 W3        30.02R
6HR MIN TEMP:  55; 6HR MAX TEMP:  75;

LEWISTONAUBURN CLEAR    N/A N/A N/A CALM      30.00R
AUGUSTA        CLEAR     61  50  67 N9        30.00R
6HR MIN TEMP:  61; 6HR MAX TEMP:  75;

WATERVILLE     CLEAR     62  52  69 N10       29.97R
BANGOR         CLEAR     64  52  64 W5        29.98R
6HR MIN TEMP:  62; 6HR MAX TEMP:  78;

GREENVILLE       N/A     55  51  86 NW12G17   30.01R
6HR MIN TEMP:  55; 6HR MAX TEMP:  64;

MILLINOCKET    CLEAR     62  51  67 N3        30.01R
6HR MIN TEMP:  62; 6HR MAX TEMP:  70;

HOULTON        MOCLDY    57  51  80 N7        29.98R
6HR MIN TEMP:  54; 6HR MAX TEMP:  65;

PRESQUE ISLE   MOCLDY    53  50  89 N7        30.02R
6HR MIN TEMP:  53; 6HR MAX TEMP:  63;

FRENCHVILLE    CLEAR     51  43  74 NW10      30.03R
6HR MIN TEMP:  51; 6HR MAX TEMP:  64;

CARIBOU        PTCLDY    53  47  79 N5        30.01R
6HR MIN TEMP:  53; 6HR MAX TEMP:  62;

$$

NHZ002-005-008-009-011-012-014-010700-
NEW HAMPSHIRE

CITY           SKY/WX    TMP DP  RH WIND       PRES   REMARKS
PORTSMOUTH     CLEAR     60  54  81 NW6       29.98R
ROCHESTER      CLEAR     59  50  72 NW5       29.99R
6HR MIN TEMP:  58; 6HR MAX TEMP:  77;

NASHUA         CLEAR     61  54  77 N3        30.00R
MANCHESTER     CLEAR     66  51  58 CALM      29.99R
6HR MIN TEMP:  66; 6HR MAX TEMP:  82;

CONCORD        CLEAR     57  51  80 CALM      30.01R
6HR MIN TEMP:  55; 6HR MAX TEMP:  80;

LACONIA        PTCLDY    57  53  86 CALM      30.03R
PLYMOUTH       FAIR      58  51  80 NW5       30.02R
BERLIN         PTCLDY    51  48  89 CALM      30.06R
6HR MIN TEMP:  48; 6HR MAX TEMP:  71;

WHITEFIELD     CLEAR     51  47  86 CALM      30.06R
6HR MIN TEMP:  50; 6HR MAX TEMP:  71;

JAFFREY        CLEAR     54  52  93 CALM      30.03R
6HR MIN TEMP:  54; 6HR MAX TEMP:  75;

KEENE          CLEAR    N/A N/A N/A CALM      30.03R
LEBANON        PTCLDY    55  51  86 CALM      30.04R
6HR MIN TEMP:  54; 6HR MAX TEMP:  79;

MT WASHINGTON  FOG       41  41 100 W35         N/A  VSB 0
6HR MIN TEMP:  41; 6HR MAX TEMP:  46;

$$

VTZ005-007-008-010700-
VERMONT

CITY           SKY/WX    TMP DP  RH WIND       PRES   REMARKS
ST JOHNSBURY     N/A     57  51  80 MISG      30.04R
MONTPELIER     FAIR      54  49  83 CALM      30.10R
BURLINGTON     CLOUDY    63  52  67 N7        30.07R
$$

MAZ007-012-024-CTZ003-RIZ002-NYZ038-NYZ072-010700-
SOUTHERN NEW ENGLAND AND NY

CITY           SKY/WX    TMP DP  RH WIND       PRES   REMARKS
BOSTON         PTCLDY    71  51  49 N5        29.98R
WORCESTER      CLEAR     65  42  43 NW7       30.01S
NANTUCKET      FOG       60  59  96 SW6       29.97S VSB 1/2
PROVIDENCE     CLEAR     66  61  84 W7        29.98S
HARTFORD       PTCLDY    64  48  56 CALM      29.99R
ALBANY         PTCLDY    61  49  64 N3        30.03R
NEW YORK CITY  CLOUDY    74  64  70 NE6       29.99R
$$

ANZ081-ANZ082-ANZ150-NHZ014-MEZ023>029-010700-
COASTAL MARINE OBSERVATIONS

STATION/POSITION TIME  TEMP    WIND        PRES    WAVE
                       AIR SEA DIR/SP/G            HT/PER
                 (UTC) (F)     (DEG/KT/KT) (MB)    (FT/S)
MOUNT DESERT ROC 0600   61     330/  2/  2 1014.7R
MATINICUS ROCK   0600   65     330/  9/ 10 1014.4R
ISLE OF SHOALS   0600   67      20/  9/  9 1015.2R
JEFFREYS LEDGE   0508      56                N/A     2/ 8
CASHES LEDGE BUO 0550   60 52   20/  4/  4 1014.6R   3/ 5
GEORGES BANK BUO 0450   55 54              1015.0    4/ 7
$$

.............KEY..............
   WCI - WIND CHILL
   TC  - TEMPERATURE IN CELSIUS
   VSB - VISIBILITY IN MILES
   HX  - HEAT INDEX
   FAIR- INDICATES FEW OR NO CLOUDS BELOW 12,000 FT, WITH NO
         SIGNIFICANT WEATHER AND/OR OBSTRUCTIONS TO VISIBILITY.






USA.gov is the U.S. government's official web portal to all federal, state and local government web resources and services.